User: anonymous   Login
Location: Unspecified
(0.0000°N, 0.0000°E)
Time: 18:43:40
(UTC+00:00)
Language:

TIANWANG 1A (TW-1A) - Orbit

View from above orbital plane
View from above orbital plane
View from above satellite
View from above satellite

Ground track
Ground track

The orbit data is extracted from the following two-line orbital elements,

1 40928U 15051D   18351.40457475  .00002516  00000-0  65640-4 0  9998
2 40928  97.1674  21.6791 0012486  26.3229  30.9562 15.39676874180965
Epoch (UTC): 17 December 2018 09:42:35
Eccentricity: 0.0012486
inclination: 97.1674°
perigee height: 438 km
apogee height: 455 km
right ascension of ascending node: 21.6791°
argument of perigee: 26.3229°
revolutions per day: 15.39676874
mean anomaly at epoch: 30.9562°
orbit number at epoch: 18096

The dashed part of the orbit path shows where the satellite is in the earth's shadow,  

DLR